Regional Weather Roundup
Issued by NWS

Home | Current Version | Previous Version | Graphics & Text | Print | Product List | Glossary On
Versions: 1 2 3 4 5 6 7 8 9 10 11 12 13 14 15 16 17 18 19 20 21 22 23 24 25 26 27 28 29 30 31 32 33 34 35 36 37 38 39 40 41 42 43 44 45 46 47 48 49 50
000
ASUS43 KTOP 101259
RWRKS

WEATHER ROUNDUP FOR KANSAS
NATIONAL WEATHER SERVICE GOODLAND KS
800 AM CDT THU JUL 10 2014

NOTE:  "FAIR" INDICATES FEW OR NO CLOUDS BELOW 12,000 FEET WITH NO
SIGNIFICANT WEATHER AND/OR OBSTRUCTIONS TO VISIBILITY.

KSZ001>006-013>018-027>032-041>047-101400-
NORTHWEST KANSAS

CITY           SKY/WX    TMP DP  RH WIND       PRES   REMARKS
GOODLAND       CLOUDY    64  62  93 S18G26    30.04S
HAYS           MOSUNNY   66  63  88 S15       29.98F
HILL CITY      MOSUNNY   66  63  90 S14G22    29.97F
RUSSELL        PTSUNNY   67  64  90 S24       29.93F
$$

KSZ061>065-074>080-084>089-101400-
SOUTHWEST KANSAS

CITY           SKY/WX    TMP DP  RH WIND       PRES   REMARKS
DODGE CITY     MOSUNNY   66  61  84 SE21      30.03R
ELKHART          N/A     69  54  58 S8          N/A
GARDEN CITY    SUNNY     66  61  84 S21G32    30.00S
GREAT BEND     PTSUNNY   66  61  82 S15G21    29.99F
LIBERAL        MOSUNNY   70  61  73 E22       30.03R
$$

KSZ066>073-081>083-090>101-101400-
SOUTHEAST KANSAS

CITY           SKY/WX    TMP DP  RH WIND       PRES   REMARKS
CHANUTE        LGT RAIN  68  63  84 S3        30.11R
COFFEYVILLE    RAIN      67  65  93 NW5       30.12R FOG
HUTCHINSON     CLOUDY    67  63  87 S10       30.00S
MEDICINE LODGE   N/A     65  63  93 E10G17    30.04R
NEWTON         CLOUDY    64  61  88 S14       30.02F
PARSONS        RAIN      67  63  87 N6        30.13R FOG
WICHITA INTL   LGT RAIN  66  66 100 S13       30.00F
WICHITA JABRA  CLOUDY    65  64  97 S12       30.01F
WICHITA MCCONL LGT RAIN  66  66 100 SE13      30.03F
WINFIELD       RAIN      65  65 100 SE20      30.06F
$$

KSZ007>012-019>026-033>040-048>060-102>105-101400-
NORTHEAST KANSAS

CITY           SKY/WX    TMP DP  RH WIND       PRES   REMARKS
CONCORDIA      CLOUDY    68  66  93 S9        29.97R
EMPORIA        CLOUDY    67  63  87 S10       30.05F
LAWRENCE       CLOUDY    69  63  81 E7        30.07R
MANHATTAN      CLOUDY    71  63  75 E8        30.00F
OLATHE IND     CLOUDY    69  60  73 SE12      30.09R
OLATHE EXE     CLOUDY    67  60  78 SE8       30.08S
SALINA         CLOUDY    69  65  86 S13       29.96S
TOPEKA BILLARD CLOUDY    72  64  76 SE10      30.05S
TOPEKA FORBES  CLOUDY    71  63  75 S12       30.05F
$$



USA.gov is the U.S. government's official web portal to all federal, state and local government web resources and services.